[[{"header":{"parameterUnit":"m.s-1","parameterCategory":1,"la1":30.2991,"la2":30.254,"lo1":-89.0895,"lo2":-89.0444,"dy":0.0017,"dx":0.0017,"nx":28,"ny":28,"refTime":"2023-10-18T03:00:00:Z","depth":0,"parameterNumber":2,"parameterNumberName":"U-component_of_WINDS"},"data":[0,0,0,0,0,0,0,0,0,0,0,0,0,0,0,0,0,0,0,0,0,0,0,0,0,0,0,0,0,0,0,0,0,0,0,0,0,0,0,0,0,0,0,0,0,0,0,0,0,0,0,0,0,0,0,0,0,0,2.2767,2.2768,0,2.2893,2.2894,2.2896,2.287,2.2868,2.2865,2.2863,2.2996,2.3002,2.3007,0,0,0,0,0,0,0,0,0,0,0,0,0,2.2507,2.2512,2.2767,2.2768,2.277,2.2892,2.2894,2.2896,2.287,2.2868,2.2865,2.2862,2.2994,2.3001,2.3008,0,0,0,0,0,0,0,0,0,0,0,0,0,2.2626,2.2514,2.2766,2.2772,2.2773,2.2892,2.2894,2.2896,2.2871,2.2868,2.2864,2.2861,2.2992,2.3,2.3009,2.3131,0,0,2.3035,2.3039,0,0,0,0,0,0,0,0,2.2619,2.2635,2.2769,2.2772,2.2774,2.2862,2.2852,2.2975,2.2872,2.2834,2.2863,2.2859,2.2955,2.2966,2.2997,2.3137,2.3143,2.3036,2.3041,2.3045,2.3047,0,0,0,0,0,0,0,2.2611,2.263,2.2817,2.2771,2.2774,2.2769,2.2782,2.2875,2.2913,2.2837,2.2836,2.2851,2.2955,2.2989,2.3,2.3145,2.3036,2.3043,2.3048,2.3052,2.3391,2.3394,0,0,0,0,0,0,2.26,2.2623,2.2813,2.282,2.2686,2.2776,2.2791,2.2837,2.2911,2.2919,2.2853,2.2849,2.2976,2.299,2.3005,2.3151,2.3045,2.3053,2.3057,2.3387,2.3391,2.3396,0,0,0,0,0,0,2.2595,2.2617,2.2808,2.2721,2.2745,2.2785,2.2837,2.2842,2.2875,2.2924,2.2931,2.2881,2.2974,2.2993,2.3099,2.3156,2.3056,2.3064,2.3382,2.3388,2.3394,2.3446,0,0,0,0,0,0,2.2587,2.2615,2.2661,2.2722,2.275,2.2899,2.284,2.2847,2.289,2.2885,2.2951,2.2959,2.2973,2.3087,2.3108,2.3166,2.3071,2.3377,2.3385,2.3392,2.344,2.3453,2.3465,0,0,0,0,0,2.2578,2.2673,2.2664,2.2687,2.2808,2.2902,2.2918,2.2931,2.2894,2.2941,2.2972,2.2957,2.3147,2.3098,2.3121,2.3183,2.3374,2.3383,2.3391,2.3434,2.3451,2.3465,0,0,0,0,0,0,2.2619,2.2681,2.2672,2.2788,2.284,2.2898,2.2957,2.2948,2.3012,2.3005,2.302,2.3035,2.3143,2.3174,2.3119,2.3304,2.3255,2.3269,2.328,2.3296,2.3308,2.3298,2.3078,0,0,0,0,0,2.2641,2.2711,2.2762,2.286,2.2887,2.2918,2.2959,2.2964,2.3019,2.3041,2.308,2.3134,2.3206,2.3253,2.3322,2.3445,2.3458,2.3499,2.3511,2.3521,2.3533,2.3598,2.3616,2.3424,2.3424,2.3424,0,0,2.2688,2.2731,2.2774,2.287,2.291,2.2983,2.2936,2.3016,2.307,2.3054,2.3155,2.3186,2.3248,2.3363,2.3415,2.3392,2.3589,2.3532,2.354,2.3546,2.3609,2.3627,2.3643,2.343,2.3429,2.3428,0,0,2.2811,2.2851,2.2936,2.2977,2.3038,2.3058,2.3079,2.3138,2.3157,2.3259,2.3248,2.3314,2.3438,2.3482,2.352,2.366,2.3647,2.3682,2.3747,2.3811,2.3826,2.3839,2.3887,2.3905,2.3693,2.3694,2.3694,0,2.2862,2.297,2.2981,2.3061,2.3103,2.3091,2.3177,2.3217,2.3299,2.3328,2.3301,2.3455,2.3496,2.362,2.3653,2.3686,2.371,2.3673,2.3823,2.3836,2.3849,2.3895,2.3913,2.3697,2.3697,2.3696,2.3696,0,2.3029,2.3105,2.3166,2.3243,2.3292,2.3376,2.34,2.3449,2.345,2.3473,2.3577,2.3626,2.3704,2.3734,2.3737,2.3859,2.3842,2.3819,2.3769,2.3871,2.3914,2.3932,2.3702,2.3701,2.37,2.3699,0,0,2.318,2.3261,2.3283,2.3317,2.3384,2.3443,2.3526,2.3601,2.3642,2.3699,2.3768,2.3873,2.3851,2.3895,2.3903,2.396,2.4065,2.393,2.3931,2.3951,2.42,2.4215,2.4235,2.4058,2.4061,2.4064,2.4194,0,2.3307,2.3451,2.3463,2.3593,2.3662,2.3651,2.3723,2.3773,2.3797,2.386,2.3887,2.396,2.3927,2.3953,2.4009,2.404,2.4114,2.4031,2.4122,2.4125,2.4104,2.4258,2.4275,2.4395,2.4211,2.4214,2.4216,0,2.3474,2.3534,2.367,2.3726,2.3755,2.382,2.3888,2.3949,2.4005,2.4019,2.4067,2.4067,2.4153,2.4102,2.422,2.4163,2.4201,2.4222,2.4227,2.4234,2.4175,2.4268,2.4434,2.4451,2.4243,2.4241,2.4239,0,2.3568,2.3683,2.3779,2.3809,2.3877,2.3922,2.3953,2.4005,2.4049,2.411,2.4138,2.4209,2.4247,2.4303,2.4322,2.4283,2.4439,2.4389,2.4452,2.4452,2.4484,2.4481,2.4656,2.4512,2.4512,2.4512,2.4511,0,2.3708,2.3791,2.3821,2.388,2.3973,2.3987,2.4079,2.4108,2.4155,2.4219,2.4216,2.4276,2.4299,2.4364,2.4381,2.4475,2.4493,2.4506,2.4509,2.4506,2.4503,2.4529,2.4521,2.4516,2.4515,2.4514,2.4514,0,2.3827,2.3851,2.3954,2.401,2.4026,2.4092,2.414,2.4197,2.422,2.4302,2.4322,2.4359,2.4435,2.446,2.4553,2.4564,2.4673,2.467,2.4654,2.4654,2.4714,2.4707,2.491,2.4937,2.4777,2.4779,2.478,0,2.3914,2.3977,2.4039,2.4081,2.4113,2.4182,2.4225,2.4242,2.4288,2.4356,2.4405,2.448,2.4541,2.4663,2.4699,2.477,2.4767,2.4834,2.4778,2.4771,2.4766,2.4761,2.4766,2.4843,2.4845,2.4846,2.4847,0,2.4064,2.4072,2.4135,2.4202,2.4254,2.4308,2.436,2.4395,2.442,2.4472,2.4549,2.4596,2.469,2.4764,2.4836,2.4869,2.4862,2.4865,2.4883,2.4878,2.4865,2.4871,2.468,2.486,2.4858,2.4858,2.4857,2.4856,2.4168,2.4223,2.4275,2.4345,2.4385,2.4434,2.449,2.4519,2.4583,2.4659,2.4666,2.4749,2.4803,2.4898,2.4935,2.5,2.4982,2.5008,2.5014,2.502,2.5024,2.4856,2.5014,2.5014,2.5013,2.5013,2.5013,0,2.4316,2.4349,2.4413,2.4485,2.454,2.4528,2.4585,2.4632,2.4704,2.4754,2.4814,2.4902,2.4974,2.5015,2.5087,2.5131,2.513,2.515,2.5145,2.5153,2.5037,2.5013,2.5149,2.5149,2.5149,2.5149,2.5149,2.5149,2.44,2.4492,2.4506,2.4619,2.4651,2.473,2.4764,2.4809,2.4848,2.4946,2.5005,2.5031,2.5078,2.5153,2.5219,2.5229,2.5255,2.5276,2.5284,2.5175,2.5161,2.5148,2.5125,2.5282,2.5282,2.5394,2.5395,2.5396]},{"header":{"parameterUnit":"m.s-1","parameterCategory":1,"la1":30.2991,"la2":30.254,"lo1":-89.0895,"lo2":-89.0444,"dy":0.0017,"dx":0.0017,"nx":28,"ny":28,"refTime":"2023-10-18T03:00:00:Z","depth":0,"parameterNumber":3,"parameterNumberName":"V-component_of_WINDS"},"data":[0,0,0,0,0,0,0,0,0,0,0,0,0,0,0,0,0,0,0,0,0,0,0,0,0,0,0,0,0,0,0,0,0,0,0,0,0,0,0,0,0,0,0,0,0,0,0,0,0,0,0,0,0,0,0,0,0,0,1.5128,1.5129,0,1.5195,1.5196,1.5196,1.5176,1.5174,1.5173,1.5171,1.5238,1.5241,1.5244,0,0,0,0,0,0,0,0,0,0,0,0,0,1.4979,1.4982,1.5128,1.5129,1.513,1.5195,1.5196,1.5197,1.5176,1.5174,1.5172,1.5171,1.5237,1.5241,1.5244,0,0,0,0,0,0,0,0,0,0,0,0,0,1.5045,1.4983,1.5128,1.5127,1.5128,1.5195,1.5196,1.5197,1.5176,1.5174,1.5172,1.517,1.5236,1.524,1.5245,1.5316,0,0,1.5259,1.5261,0,0,0,0,0,0,0,0,1.5041,1.505,1.5127,1.5128,1.5128,1.5175,1.5168,1.5237,1.5177,1.5158,1.5171,1.5169,1.5219,1.5225,1.5242,1.5319,1.5322,1.526,1.5262,1.5264,1.5266,0,0,0,0,0,0,0,1.5037,1.5047,1.5155,1.5128,1.5129,1.5122,1.5129,1.5181,1.5199,1.5159,1.5158,1.5166,1.5219,1.5237,1.5243,1.5323,1.5259,1.5264,1.5266,1.5268,1.5457,1.5459,0,0,0,0,0,0,1.5032,1.5044,1.5152,1.5157,1.5079,1.5127,1.5135,1.5162,1.5199,1.5202,1.5168,1.5165,1.523,1.5238,1.5245,1.5328,1.5264,1.5269,1.5271,1.5455,1.5458,1.546,0,0,0,0,0,0,1.5029,1.5042,1.515,1.51,1.5113,1.5132,1.5163,1.5164,1.5183,1.5205,1.5208,1.5184,1.5229,1.5239,1.5298,1.533,1.5271,1.5275,1.5452,1.5456,1.5459,1.5496,0,0,0,0,0,0,1.5025,1.5041,1.5069,1.5101,1.5116,1.5203,1.5165,1.5167,1.5191,1.5188,1.5221,1.5224,1.5228,1.5291,1.5302,1.5336,1.5279,1.545,1.5454,1.5458,1.5492,1.5501,1.5508,0,0,0,0,0,1.5019,1.5078,1.5071,1.5084,1.5152,1.5205,1.5213,1.5217,1.5194,1.5222,1.5235,1.5223,1.5325,1.5297,1.531,1.5345,1.5447,1.5453,1.5458,1.5489,1.5499,1.5508,0,0,0,0,0,0,1.505,1.5082,1.5075,1.5145,1.5172,1.5201,1.5236,1.5228,1.5262,1.5258,1.526,1.5268,1.5327,1.5342,1.5311,1.5413,1.5383,1.539,1.5402,1.5412,1.5419,1.5414,1.5282,0,0,0,0,0,1.5065,1.5106,1.5131,1.5191,1.5205,1.5218,1.5241,1.5241,1.5269,1.5281,1.5299,1.5326,1.5363,1.5388,1.5425,1.5494,1.5499,1.5524,1.5532,1.5538,1.5545,1.5579,1.559,1.5477,1.5477,1.5477,0,0,1.5097,1.5119,1.5145,1.5197,1.5219,1.5259,1.5228,1.5274,1.5303,1.5288,1.5344,1.5358,1.5388,1.5451,1.548,1.5465,1.5577,1.5544,1.5549,1.5553,1.5586,1.5596,1.5606,1.548,1.548,1.5479,0,0,1.5175,1.5197,1.5247,1.5268,1.53,1.5308,1.532,1.5349,1.5358,1.5414,1.5402,1.5437,1.5503,1.5523,1.5543,1.5624,1.5613,1.5636,1.5676,1.571,1.5719,1.5727,1.5754,1.5764,1.5642,1.5642,1.5642,0,1.521,1.5272,1.5274,1.532,1.5342,1.5329,1.5379,1.5399,1.5441,1.5456,1.5438,1.5518,1.5538,1.5604,1.5624,1.564,1.5652,1.5632,1.5717,1.5725,1.5733,1.5758,1.5769,1.5645,1.5644,1.5644,1.5644,0,1.5312,1.5355,1.5392,1.5432,1.5458,1.5506,1.5513,1.5539,1.5536,1.5545,1.5601,1.5623,1.5662,1.5678,1.5676,1.5743,1.5733,1.5717,1.5686,1.5746,1.577,1.578,1.5648,1.5647,1.5647,1.5646,0,0,1.5414,1.5452,1.5465,1.5482,1.5514,1.5547,1.5592,1.563,1.5651,1.5679,1.5716,1.577,1.5754,1.5776,1.5776,1.5805,1.5865,1.5785,1.5785,1.5798,1.5938,1.595,1.5962,1.5858,1.586,1.5862,1.5935,0,1.5493,1.5574,1.5576,1.5649,1.5687,1.5673,1.5712,1.5735,1.5744,1.5776,1.5785,1.5823,1.58,1.5812,1.5841,1.5852,1.5893,1.5847,1.5891,1.5892,1.5883,1.5975,1.5988,1.6057,1.5945,1.5947,1.5948,0,1.5598,1.5628,1.5705,1.5729,1.5745,1.578,1.5813,1.5845,1.5869,1.5873,1.5896,1.589,1.5934,1.5901,1.596,1.5928,1.5946,1.5954,1.5956,1.596,1.5924,1.598,1.6079,1.6089,1.5963,1.5962,1.5961,0,1.5662,1.5722,1.5775,1.579,1.5819,1.5844,1.5857,1.588,1.5901,1.5929,1.5943,1.5976,1.5994,1.6019,1.6021,1.5997,1.608,1.6048,1.6083,1.6083,1.6102,1.61,1.6204,1.6114,1.6114,1.6114,1.6114,0,1.575,1.5797,1.5804,1.5836,1.5888,1.5888,1.5938,1.5949,1.5968,1.6001,1.5991,1.6022,1.6024,1.6055,1.6057,1.6104,1.6113,1.6116,1.6116,1.6117,1.6116,1.6128,1.6123,1.6117,1.6116,1.6115,1.6115,0,1.5831,1.5837,1.5894,1.5916,1.5923,1.5959,1.5978,1.6007,1.6014,1.6056,1.6065,1.6075,1.6111,1.6116,1.6158,1.6159,1.6216,1.6211,1.6207,1.6206,1.6241,1.6237,1.6355,1.637,1.6272,1.6272,1.6273,0,1.5887,1.5922,1.5947,1.5969,1.5983,1.6018,1.6039,1.6039,1.6062,1.609,1.6116,1.6151,1.6178,1.6236,1.6246,1.6277,1.6273,1.6312,1.6277,1.6276,1.6271,1.6269,1.6271,1.6318,1.6319,1.632,1.6321,0,1.5984,1.5984,1.6016,1.6047,1.6073,1.6098,1.6121,1.6139,1.6142,1.6167,1.6203,1.6224,1.6266,1.63,1.633,1.6342,1.6331,1.6331,1.6341,1.6342,1.6338,1.6339,1.6225,1.6329,1.6328,1.6328,1.6327,1.6327,1.6053,1.6083,1.6104,1.6138,1.6156,1.6177,1.6205,1.6214,1.6245,1.6279,1.6277,1.6316,1.6336,1.6375,1.6389,1.6419,1.6406,1.642,1.6424,1.6427,1.643,1.6333,1.6425,1.6424,1.6424,1.6424,1.6424,0,1.6148,1.6161,1.6192,1.6224,1.625,1.6238,1.6262,1.6285,1.6319,1.6339,1.6366,1.6406,1.6438,1.6449,1.648,1.6501,1.6497,1.6509,1.6507,1.6509,1.644,1.6428,1.6512,1.6512,1.6512,1.6512,1.6512,1.6512,1.6201,1.625,1.6252,1.6308,1.632,1.6359,1.6373,1.6392,1.6407,1.6453,1.6479,1.6486,1.6502,1.6533,1.6561,1.6563,1.6574,1.6588,1.6588,1.6524,1.6515,1.6506,1.6495,1.6591,1.6591,1.6655,1.6655,1.6656]}]]